Flag for Honduras Weather past 2 weeks in San Pedro Sula, Honduras

Now
81 °F

Scattered clouds.


Feels Like: 86 °F
Forecast: 72 / 90 °F
Wind: No wind

Location: La Mesa San Pedro Sula

Current Time: Aug 29, 2014 at 8:41:41 AM

Latest Report: Aug 29, 2014 at 8:00 AM


Visibility: N/A

Pressure: 29.89 "Hg

Humidity: 84%

Dew point: 75 °F

Location of San Pedro SulaLocation

Historic Weather in San Pedro Sula — Graph

°F

San Pedro Sula temperature yesterday

Maximum temperature yesterday: 95 °F (at 12:00 PM)
Minimum temperature yesterday: 75 °F (at 4:00 AM)
Average temperature yesterday: 82 °F

Past Weeks' High & Low Weather Summary

 TemperatureHumidityPressure
High95 °F (Aug 25, 2:00 PM)100% (Aug 14, 5:00 PM)30.04 "Hg (Aug 14, 5:00 PM)
Low72 °F (Aug 14, 5:00 PM)47% (Aug 27, 12:00 PM)29.74 "Hg (Aug 25, 3:00 PM)
Average82 °F81%29.91 "Hg
* Reported Aug 14 7:00 AM — Aug 29 7:00 AM, San Pedro Sula, Weather by CustomWeather, © 2014

Note: Actual official high and low records may vary slightly from our data, if they occured in-between our weather recording intervals... More about our weather records

Advertising

San Pedro Sula weather history for previous 24 hours

 ConditionsComfort  
Time TempWeatherWind HumidityBarometerVisibility
7:00 AM
Aug 29
77 °FScattered clouds.No wind94%29.86 "HgN/A
6:00 AM75 °FScattered clouds.No wind94%29.86 "HgN/A
5:00 AM75 °FPassing clouds.No wind94%29.86 "HgN/A
4:00 AM75 °FPassing clouds.6 mph89%29.86 "HgN/A
3:00 AM75 °FPassing clouds.No wind94%29.86 "HgN/A
12:00 AM75 °FPassing clouds.5 mph94%29.89 "HgN/A
11:00 PM
Aug 28
75 °FPassing clouds.6 mph94%29.92 "HgN/A
10:00 PM77 °FPassing clouds.6 mph94%29.92 "HgN/A
9:00 PM75 °FPassing clouds.8 mph100%29.89 "HgN/A
8:00 PM75 °FLight rain. Partly cloudy.6 mph100%29.86 "Hg4 mi
7:00 PM75 °FThunderstorms. Partly cloudy.8 mph100%29.83 "Hg2 mi
6:00 PM84 °FThunderstorms. Broken clouds.12 mph79%29.80 "Hg5 mi
5:00 PM84 °FBroken clouds.12 mph79%29.77 "HgN/A
4:00 PM84 °FBroken clouds.12 mph84%29.77 "HgN/A
3:00 PM86 °FThunderstorms. Broken clouds.14 mph66%29.77 "HgN/A
2:00 PM93 °FBroken clouds.16 mph59%29.77 "HgN/A
1:00 PM95 °FScattered clouds.6 mph50%29.80 "HgN/A
12:00 PM95 °FScattered clouds.3 mph50%29.83 "HgN/A
11:00 AM93 °FPassing clouds.5 mph53%29.86 "HgN/A
10:00 AM90 °FPassing clouds.7 mph55%29.89 "HgN/A
9:00 AM86 °FPassing clouds.9 mph66%29.89 "HgN/A
8:00 AM82 °FPassing clouds.6 mph79%29.89 "HgN/A
Weather by CustomWeather, © 2014

See weather overviewHow to use our weather pages